Regional Weather Roundup
Issued by NWS

Home | Current Version | Previous Version | Graphics & Text | Print | Product List | Glossary On
Versions: 1 2 3 4 5 6 7 8 9 10 11 12 13 14 15 16 17 18 19 20 21 22 23 24 25 26 27 28 29 30 31 32 33 34 35 36 37 38 39 40 41 42 43 44 45 46 47 48 49 50
000
ASUS45 KBOU 200707
RWRCO

WEATHER ROUNDUP FOR COLORADO
NATIONAL WEATHER SERVICE DENVER/BOULDER CO
100 AM MDT MON OCT 20 2014

NOTE: "FAIR" INDICATES FEW OR NO CLOUDS BELOW 12000 FEET WITH NO
SIGNIFICANT WEATHER AND/OR OBSTRUCTIONS TO VISIBILITY.

COZ001>005-013-030-031-200800-
...NORTHWEST COLORADO...

CITY           SKY/WX    TMP DP  RH WIND       PRES   REMARKS
CRAIG          CLEAR     37  30  75 CALM      30.19R
HAYDEN         CLEAR     45  28  53 E10       30.20R
MEEKER         CLEAR     43  34  70 E5        30.20R
MOUNT WERNER   NOT AVBL
STEAMBOAT SPGS CLEAR     41  30  64 CALM      30.23R
WALDEN         CLEAR     32  27  80 SE6       30.28R WCI  26
$$

COZ006>008-011-200800-
...WEST CENTRAL VALLEYS...

CITY           SKY/WX    TMP DP  RH WIND       PRES   REMARKS
GRAND JUNCTION CLEAR     51  33  50 E6        30.11R
MONTROSE       PTCLDY    51  40  65 SE8       30.18R
EAGLE          CLEAR     45  36  70 CALM      30.25R
RIFLE          PTCLDY    45  36  70 SE5       30.16R
DELTA          PTCLDY    55  38  52 N8        30.14R
NUCLA          PTCLDY    50  36  57 SE9       30.21S
$$

COZ017>023-064>068-200800-
...SOUTHWEST COLORADO...

CITY           SKY/WX    TMP DP  RH WIND       PRES   REMARKS
DURANGO        CLOUDY    45  43  93 N5        30.22F
CORTEZ         MOCLDY    45  42  89 CALM      30.19S
PAGOSA SPRINGS CLOUDY    42  42  99 CALM      30.28F
TELLURIDE      CLOUDY    44  37  77 CALM      30.34F
WOLF CREEK PAS MOCLDY    32  32 100 NE10      30.46F WCI  24
$$

COZ009-010-012-014-032>034-037-058>063-200800-
...CENTRAL COLORADO...

CITY           SKY/WX    TMP DP  RH WIND       PRES   REMARKS
ASPEN          PTCLDY   N/A N/A N/A S5        30.26R
BUENA VISTA    PTCLDY    39  35  83 W3        30.31R
COPPER MTN     PTCLDY    39  27  60 S17       30.48S
BERTHOUD PASS  FAIR      32  30  93 S3        30.52S
COTTONWOOD PAS PTCLDY    46  32  57 CALM      30.39S
GUNNISON       PTCLDY    41  30  65 N9        30.31R
KREMMLING      CLEAR     34  28  80 CALM        N/A
LEADVILLE      PTCLDY    31  28  89 CALM      30.38S
SALIDA         PTCLDY    47  36  67 CALM      30.36R
SUNLIGHT       PTCLDY    43  32  65 CALM      30.42S
WILKERSON PASS NOT AVBL
$$

COZ069>075-200800-
...SAN LUIS VALLEY/SANGRE DE CRISTO MOUNTAINS...

CITY           SKY/WX    TMP DP  RH WIND       PRES   REMARKS
ALAMOSA        MOCLDY    43  34  70 SE3       30.27S
LA VETA PASS   PTCLDY    41  32  70 W3        30.39F
SAGUACHE       MOCLDY    46  37  71 NW9       30.29F
$$

COZ035-036-038>040-200800-
...NORTHERN COLORADO FRONT RANGE...

CITY           SKY/WX    TMP DP  RH WIND       PRES   REMARKS
DENVER INTL AP PTCLDY    53  34  48 SW6       30.17R
DMNS CITY PARK   N/A     49  37  61 S2        30.17S
AURORA         PTCLDY    48  35  60 S6        30.19R
FRONT RANGE AP PTCLDY    48  37  66 S9        30.18S
ERIE MUNI ARPT PTCLDY    40  38  89 CALM      30.16R
BOULDER MUN AP PTCLDY    50  34  53 CALM      30.17R
CENTENNIAL     PTCLDY    52  34  50 SE10      30.19S
BROOMFIELD     PTCLDY    52  34  50 SE5       30.19R
FORT COLLINS   CLEAR     46  37  71 N6        30.18R
LONGMONT       CLEAR     45  36  71 CALM      30.18R
$$

COZ041-046-047-076>085-087-088-200800-
...PIKES PEAK/PALMER DIVIDE AND SOUTHERN FOOTHILLS...

CITY           SKY/WX    TMP DP  RH WIND       PRES   REMARKS
COLO. SPRINGS  PTCLDY    46  36  68 N7        30.24R
A. F. ACADEMY  CLEAR     39  32  77 N9        30.25R
ELLICOTT       NOT AVBL
FALCON         PTCLDY    42  34  73 CALM      30.26S
FORT CARSON    PTCLDY    47  34  60 NW5       30.21R
LIMON          MOCLDY    38  35  89 N6        30.19R
MONUMENT HILL  CLEAR     37  32  81 S8        30.25R
TRINIDAD       PTCLDY    48  39  71 W10       30.18S
$$

COZ042>045-048>051-090-091-200800-
...NORTHEAST COLORADO...

CITY           SKY/WX    TMP DP  RH WIND       PRES   REMARKS
GREELEY ARPT   CLEAR     45  34  65 N5        30.17R
AKRON          CLEAR     51  38  60 S8        30.15R
BURLINGTON     CLEAR     41  37  86 W6        30.14R
WRAY           CLEAR     44  37  79 SW6       30.12R
STERLING       CLEAR     45  37  76 SW5       30.13R
HOLYOKE        CLEAR     41  36  81 W7        30.13R
FORT MORGAN    CLEAR     51  35  55 CALM      30.16R
$$

COZ086-089-092>099-200800-
...SOUTHEAST COLORADO...

CITY           SKY/WX    TMP DP  RH WIND       PRES   REMARKS
PUEBLO         CLEAR     51  38  60 CALM      30.15R
LA JUNTA       PTCLDY    50  41  71 N7        30.12R
LAMAR          CLEAR     48  42  80 CALM      30.09R
SPRINGFIELD      N/A     45  40  82 W5        30.11R
$$



USA.gov is the U.S. government's official web portal to all federal, state and local government web resources and services.